�������l�o���
Date,Time,MP-1(��Sv/h),MP-2(��Sv/h),MP-3(��Sv/h),MP-4(��Sv/h),MP-5(��Sv/h),MP-6(��Sv/h),MP-7(��Sv/h),����,����(m/s),���J
2016/09/18,00:00,0.379,0.234,0.400,0.368,0.361,0.189,0.161,�k�k��,2.9,�L
2016/09/18,00:10,0.385,0.232,0.399,0.365,0.358,0.189,0.164,�k�k��,2.7,�L
2016/09/18,00:20,0.382,0.233,0.398,0.368,0.364,0.190,0.161,�k��,2.3,�L
2016/09/18,00:30,0.381,0.234,0.398,0.363,0.358,0.188,0.162,���k��,2.2,�L
2016/09/18,00:40,0.382,0.231,0.395,0.367,0.363,0.188,0.161,�k��,1.7,�L
2016/09/18,00:50,0.378,0.234,0.398,0.366,0.358,0.187,0.160,���k��,2.2,�L
2016/09/18,01:00,0.383,0.231,0.398,0.364,0.359,0.188,0.162,�k��,3.6,�L
2016/09/18,01:10,0.377,0.233,0.395,0.367,0.360,0.189,0.161,�k��,1.0,�L
2016/09/18,01:20,0.381,0.231,0.398,0.364,0.357,0.188,0.161,�k��,1.4,�L
2016/09/18,01:30,0.380,0.231,0.395,0.366,0.361,0.189,0.162,�k��,4.2,�L
2016/09/18,01:40,0.379,0.232,0.395,0.365,0.357,0.189,0.160,�k��,3.3,�L
2016/09/18,01:50,0.382,0.232,0.395,0.364,0.360,0.189,0.161,�k�k��,1.3,�L
2016/09/18,02:00,0.378,0.233,0.395,0.364,0.359,0.188,0.160,���k��,2.6,�L
2016/09/18,02:10,0.382,0.233,0.395,0.361,0.357,0.188,0.161,�k��,3.0,�L
2016/09/18,02:20,0.379,0.232,0.394,0.365,0.359,0.189,0.160,���쐼,4.5,�L
2016/09/18,02:30,0.380,0.232,0.397,0.362,0.355,0.188,0.161,�k��,1.7,�L
2016/09/18,02:40,0.378,0.231,0.391,0.363,0.359,0.190,0.161,�k��,2.8,�L
2016/09/18,02:50,0.380,0.233,0.395,0.363,0.357,0.189,0.160,��,2.9,�L
2016/09/18,03:00,0.381,0.232,0.396,0.363,0.360,0.188,0.161,���쐼,3.5,�L
2016/09/18,03:10,0.378,0.232,0.392,0.365,0.359,0.190,0.161,���k��,2.6,�L
2016/09/18,03:20,0.380,0.232,0.396,0.362,0.358,0.189,0.161,�k��,0.7,�L
2016/09/18,03:30,0.379,0.231,0.393,0.365,0.358,0.189,0.160,�쐼,1.7,�L
2016/09/18,03:40,0.379,0.232,0.396,0.362,0.357,0.188,0.161,��쐼,1.7,��
2016/09/18,03:50,0.379,0.231,0.393,0.362,0.359,0.187,0.159,���쐼,1.0,�L
2016/09/18,04:00,0.378,0.233,0.395,0.363,0.356,0.187,0.160,-,CALM,�L
2016/09/18,04:10,0.380,0.230,0.394,0.361,0.359,0.187,0.159,�k��,0.8,�L
2016/09/18,04:20,0.376,0.231,0.393,0.364,0.356,0.187,0.159,�k�k��,0.7,�L
2016/09/18,04:30,0.379,0.229,0.397,0.361,0.357,0.186,0.159,���k��,0.6,�L
2016/09/18,04:40,0.377,0.230,0.392,0.363,0.359,0.186,0.158,-,CALM,�L
2016/09/18,04:50,0.378,0.230,0.396,0.362,0.355,0.187,0.159,-,CALM,�L
2016/09/18,05:00,0.379,0.230,0.394,0.362,0.358,0.185,0.158,�k,0.6,�L
2016/09/18,05:10,0.378,0.231,0.394,0.364,0.355,0.186,0.159,�k�k��,1.6,�L
2016/09/18,05:20,0.379,0.229,0.394,0.361,0.359,0.187,0.159,�k,1.9,�L
2016/09/18,05:30,0.377,0.230,0.394,0.365,0.356,0.186,0.158,�k�k��,2.6,��
2016/09/18,05:40,0.380,0.231,0.396,0.362,0.358,0.187,0.159,�k,4.2,��
2016/09/18,05:50,0.378,0.229,0.393,0.363,0.358,0.186,0.157,�k,4.3,�L
2016/09/18,06:00,0.377,0.230,0.397,0.363,0.356,0.187,0.159,�k�k��,3.5,�L
2016/09/18,06:10,0.380,0.229,0.395,0.363,0.359,0.185,0.157,�k�k��,3.3,�L
2016/09/18,06:20,0.377,0.230,0.395,0.366,0.355,0.186,0.159,�k,3.9,�L
2016/09/18,06:30,0.380,0.229,0.397,0.360,0.359,0.187,0.160,�k�k��,3.8,��
2016/09/18,06:40,0.380,0.230,0.394,0.365,0.358,0.186,0.157,�k�k��,3.8,�L
2016/09/18,06:50,0.378,0.230,0.398,0.362,0.356,0.187,0.159,�k�k��,2.5,�L
2016/09/18,07:00,0.381,0.230,0.396,0.363,0.359,0.186,0.159,�k,1.0,�L
2016/09/18,07:10,0.377,0.232,0.396,0.366,0.356,0.188,0.160,�k�k��,1.0,�L
2016/09/18,07:20,0.380,0.231,0.398,0.363,0.360,0.186,0.159,�k�k��,1.9,�L
2016/09/18,07:30,0.380,0.230,0.394,0.365,0.358,0.188,0.159,�k�k��,3.0,�L
2016/09/18,07:40,0.378,0.230,0.398,0.363,0.357,0.187,0.159,�k�k��,3.2,�L
2016/09/18,07:50,0.380,0.229,0.398,0.364,0.359,0.187,0.159,�k��,2.2,�L
2016/09/18,08:00,0.379,0.231,0.394,0.365,0.355,0.186,0.159,�k�k��,1.9,�L
2016/09/18,08:10,0.382,0.230,0.399,0.361,0.358,0.186,0.160,�k,1.7,��
2016/09/18,08:20,0.378,0.229,0.395,0.364,0.358,0.187,0.158,�k,2.2,��
2016/09/18,08:30,0.378,0.230,0.395,0.364,0.356,0.187,0.159,�k,1.8,��
2016/09/18,08:40,0.382,0.228,0.397,0.363,0.357,0.185,0.157,�k,2.0,��
2016/09/18,08:50,0.377,0.229,0.392,0.365,0.356,0.186,0.158,�k�k��,1.7,��
2016/09/18,09:00,0.379,0.229,0.396,0.361,0.355,0.186,0.158,�k�k��,1.9,��
2016/09/18,09:10,0.380,0.227,0.395,0.365,0.358,0.185,0.158,�k,2.7,�L
2016/09/18,09:20,0.377,0.231,0.392,0.364,0.356,0.186,0.159,�k,2.8,�L
2016/09/18,09:30,0.380,0.230,0.399,0.362,0.358,0.185,0.157,�k,3.1,�L
2016/09/18,09:40,0.379,0.230,0.394,0.366,0.357,0.187,0.158,�k�k��,3.4,�L
2016/09/18,09:50,0.381,0.232,0.394,0.363,0.356,0.188,0.161,�쐼,6.6,�L
2016/09/18,10:00,0.379,0.231,0.396,0.364,0.360,0.189,0.160,�k�k��,2.1,�L
2016/09/18,10:10,0.378,0.233,0.394,0.364,0.358,0.190,0.162,�k,1.4,�L
2016/09/18,10:20,0.383,0.234,0.397,0.362,0.361,0.191,0.162,�쐼,4.4,�L
2016/09/18,10:30,0.382,0.233,0.395,0.366,0.360,0.191,0.164,�k,2.0,�L
2016/09/18,10:40,0.383,0.236,0.395,0.364,0.359,0.193,0.165,���쐼,1.8,�L
2016/09/18,10:50,0.382,0.236,0.397,0.364,0.364,0.192,0.165,�k��,2.2,�L
2016/09/18,11:00,0.380,0.237,0.394,0.364,0.360,0.194,0.167,��쓌,2.9,�L
2016/09/18,11:10,0.384,0.237,0.397,0.360,0.365,0.193,0.166,�k,3.7,�L
2016/09/18,11:20,0.379,0.237,0.393,0.363,0.361,0.194,0.166,�k��,4.0,�L
2016/09/18,11:30,0.380,0.237,0.393,0.359,0.361,0.194,0.165,��,8.5,�L
2016/09/18,11:40,0.380,0.236,0.395,0.362,0.362,0.193,0.166,�k�k��,4.9,�L
2016/09/18,11:50,0.380,0.238,0.391,0.361,0.360,0.194,0.168,�k,5.5,�L
2016/09/18,12:00,0.379,0.237,0.393,0.356,0.364,0.193,0.167,�k�k��,2.7,�L
2016/09/18,12:10,0.377,0.237,0.389,0.360,0.360,0.194,0.169,�k��,4.2,�L
2016/09/18,12:20,0.381,0.238,0.391,0.358,0.364,0.194,0.167,�k��,3.3,�L
2016/09/18,12:30,0.377,0.236,0.392,0.362,0.362,0.194,0.167,��,5.0,�L
2016/09/18,12:40,0.380,0.238,0.390,0.359,0.361,0.194,0.168,���k��,4.7,�L
2016/09/18,12:50,0.379,0.236,0.392,0.360,0.365,0.193,0.166,��,4.0,�L
2016/09/18,13:00,0.378,0.238,0.390,0.363,0.362,0.193,0.167,��,2.0,�L
2016/09/18,13:10,0.379,0.237,0.393,0.361,0.364,0.191,0.165,�k,2.5,�L
2016/09/18,13:20,0.378,0.235,0.392,0.363,0.362,0.190,0.165,�k,2.6,�L
2016/09/18,13:30,0.379,0.235,0.390,0.362,0.360,0.190,0.165,�k,2.4,�L
2016/09/18,13:40,0.377,0.234,0.396,0.360,0.363,0.188,0.162,�k,2.8,��
2016/09/18,13:50,0.375,0.231,0.391,0.364,0.358,0.186,0.161,�k�k��,2.5,��
2016/09/18,14:00,0.377,0.231,0.391,0.359,0.358,0.185,0.161,�k,2.5,��
2016/09/18,14:10,0.373,0.230,0.392,0.360,0.359,0.184,0.158,�k�k��,2.7,��
2016/09/18,14:20,0.374,0.230,0.389,0.361,0.354,0.184,0.158,�k,2.6,��
2016/09/18,14:30,0.374,0.229,0.391,0.358,0.359,0.183,0.157,�k,2.6,��
2016/09/18,14:40,0.372,0.228,0.390,0.362,0.356,0.182,0.157,�k,2.5,��
2016/09/18,14:50,0.374,0.228,0.389,0.359,0.352,0.182,0.157,�k,2.3,��
2016/09/18,15:00,0.376,0.228,0.393,0.358,0.357,0.182,0.156,�k,3.1,��
2016/09/18,15:10,0.374,0.226,0.390,0.361,0.355,0.182,0.155,�k,3.3,��
2016/09/18,15:20,0.375,0.228,0.390,0.358,0.353,0.183,0.156,�k,3.3,�L
2016/09/18,15:30,0.374,0.228,0.393,0.360,0.357,0.183,0.156,�k,3.1,��
2016/09/18,15:40,0.373,0.227,0.392,0.362,0.354,0.182,0.156,�k,3.6,��
2016/09/18,15:50,0.377,0.229,0.392,0.360,0.358,0.184,0.157,�k,5.0,��
2016/09/18,16:00,0.376,0.228,0.394,0.362,0.356,0.183,0.156,�k,6.1,�L
2016/09/18,16:10,0.376,0.228,0.390,0.361,0.353,0.183,0.157,�k,6.2,�L
2016/09/18,16:20,0.376,0.227,0.394,0.358,0.357,0.184,0.157,�k,6.3,��
2016/09/18,16:30,0.374,0.228,0.393,0.365,0.353,0.183,0.156,�k,6.7,�L
2016/09/18,16:40,0.377,0.228,0.392,0.360,0.357,0.183,0.157,�k,6.7,�L
2016/09/18,16:50,0.375,0.226,0.394,0.361,0.356,0.183,0.158,�k,7.3,�L
2016/09/18,17:00,0.376,0.230,0.390,0.363,0.355,0.184,0.158,�k,5.7,�L
2016/09/18,17:10,0.375,0.230,0.394,0.361,0.358,0.185,0.159,�k,6.1,�L
2016/09/18,17:20,0.376,0.231,0.393,0.363,0.354,0.186,0.159,�k,6.2,�L
2016/09/18,17:30,0.379,0.231,0.391,0.360,0.358,0.187,0.159,�k,6.6,�L
2016/09/18,17:40,0.374,0.229,0.393,0.360,0.355,0.186,0.158,�k,6.6,�L
2016/09/18,17:50,0.376,0.232,0.388,0.360,0.358,0.188,0.160,�k�k��,5.2,�L
2016/09/18,18:00,0.375,0.232,0.393,0.358,0.357,0.186,0.159,�k,7.0,�L
2016/09/18,18:10,0.378,0.231,0.391,0.362,0.356,0.187,0.159,�k�k��,7.3,�L
2016/09/18,18:20,0.378,0.230,0.391,0.358,0.357,0.188,0.159,�k,7.0,�L
2016/09/18,18:30,0.375,0.231,0.394,0.363,0.355,0.187,0.159,�k�k��,7.8,�L
2016/09/18,18:40,0.379,0.231,0.392,0.360,0.360,0.187,0.159,�k�k��,7.6,�L
2016/09/18,18:50,0.374,0.230,0.395,0.360,0.357,0.187,0.158,�k�k��,7.1,��
2016/09/18,19:00,0.378,0.230,0.389,0.361,0.358,0.185,0.158,�k,7.8,��
2016/09/18,19:10,0.377,0.231,0.393,0.359,0.357,0.185,0.158,�k�k��,7.1,�L
2016/09/18,19:20,0.377,0.229,0.393,0.362,0.356,0.185,0.158,�k�k��,7.6,�L
2016/09/18,19:30,0.378,0.230,0.392,0.360,0.358,0.187,0.160,�k�k��,7.0,�L
2016/09/18,19:40,0.374,0.228,0.393,0.361,0.355,0.187,0.158,�k,6.4,�L
2016/09/18,19:50,0.378,0.230,0.392,0.361,0.358,0.186,0.159,�k,7.9,�L
2016/09/18,20:00,0.375,0.228,0.394,0.360,0.355,0.186,0.159,�k,7.0,��
2016/09/18,20:10,0.379,0.229,0.390,0.361,0.357,0.184,0.159,�k�k��,7.1,��
2016/09/18,20:20,0.375,0.229,0.395,0.359,0.357,0.185,0.157,�k,7.6,��
2016/09/18,20:30,0.375,0.228,0.393,0.363,0.356,0.183,0.157,�k,7.3,��
2016/09/18,20:40,0.376,0.229,0.391,0.360,0.356,0.184,0.157,�k�k��,7.6,��
2016/09/18,20:50,0.374,0.226,0.395,0.361,0.355,0.185,0.156,�k�k��,5.9,��
2016/09/18,21:00,0.377,0.229,0.390,0.361,0.356,0.183,0.157,�k�k��,5.9,��
2016/09/18,21:10,0.374,0.226,0.395,0.358,0.353,0.184,0.155,�k�k��,6.3,��
2016/09/18,21:20,0.377,0.229,0.390,0.361,0.356,0.183,0.156,�k�k��,6.6,��
2016/09/18,21:30,0.374,0.227,0.393,0.360,0.355,0.183,0.156,�k�k��,6.3,��
2016/09/18,21:40,0.377,0.226,0.393,0.361,0.354,0.184,0.156,�k�k��,7.0,��
2016/09/18,21:50,0.376,0.229,0.391,0.361,0.357,0.183,0.155,�k�k��,6.8,��
2016/09/18,22:00,0.374,0.227,0.394,0.360,0.354,0.184,0.156,�k�k��,6.6,��
2016/09/18,22:10,0.377,0.228,0.392,0.362,0.357,0.183,0.157,�k�k��,7.0,��
2016/09/18,22:20,0.375,0.227,0.393,0.358,0.354,0.183,0.155,�k�k��,7.1,��
2016/09/18,22:30,0.378,0.227,0.393,0.363,0.356,0.183,0.157,�k�k��,6.7,��
2016/09/18,22:40,0.375,0.227,0.392,0.362,0.355,0.183,0.156,�k�k��,6.5,��
2016/09/18,22:50,0.376,0.227,0.393,0.359,0.354,0.183,0.155,�k�k��,5.8,��
2016/09/18,23:00,0.378,0.228,0.391,0.363,0.356,0.183,0.156,�k,5.8,��
2016/09/18,23:10,0.373,0.226,0.393,0.359,0.352,0.183,0.155,�k,6.0,��
2016/09/18,23:20,0.377,0.228,0.394,0.362,0.357,0.184,0.156,�k,6.2,��
2016/09/18,23:30,0.376,0.228,0.393,0.361,0.354,0.182,0.156,�k,6.9,��
2016/09/18,23:40,0.375,0.227,0.395,0.361,0.355,0.183,0.155,�k�k��,7.3,��
2016/09/18,23:50,0.378,0.228,0.392,0.362,0.356,0.183,0.156,�k,7.0,��
